When you browse on this site, cookies collect data to enhance your experience and personalize the content and advertising you see.
Visit our Privacy Policy to learn more. By continuing to use the site, you agree to this use of cookies and data.
  • In Hungary
  • List of Countries
  • For 7 days
  • Water Temperature
  • Weather Map
  • News
  • Weather Widgets
  • user-avatar
    Login

    Hourly Weather Podgornaya

    Today, 23 October, Wednesday

    Time Temperature Precipitation Wind Pressure Humidity
    00:00 +11°C° 0 mm 1 mps 744 mmHg 75%
    01:00 +11°C° 0 mm 1 mps 744 mmHg 77%
    02:00 +10°C° 0 mm 1 mps 744 mmHg 80%
    03:00 +10°C° 0 mm 1 mps 744 mmHg 83%
    04:00 +10°C° 0 mm 1 mps 744 mmHg 85%
    05:00 +10°C° 0 mm 1 mps 744 mmHg 86%
    06:00 +10°C° 0 mm 1 mps 745 mmHg 87%
    07:00 +11°C° 0 mm 1 mps 745 mmHg 82%
    08:00 +12°C° 0 mm 2 mps 745 mmHg 77%
    09:00 +13°C° 0 mm 2 mps 745 mmHg 73%
    10:00 +15°C° 0 mm 2 mps 745 mmHg 65%
    11:00 +16°C° 0 mm 3 mps 745 mmHg 58%
    12:00 +18°C° 0 mm 3 mps 744 mmHg 51%
    13:00 +18°C° 0 mm 3 mps 744 mmHg 48%
    14:00 +19°C° 0 mm 3 mps 744 mmHg 46%
    15:00 +19°C° 0 mm 3 mps 744 mmHg 43%
    16:00 +18°C° 0 mm 3 mps 744 mmHg 48%
    17:00 +16°C° 0 mm 2 mps 744 mmHg 53%
    18:00 +15°C° 0 mm 2 mps 744 mmHg 58%
    19:00 +14°C° 0 mm 2 mps 744 mmHg 61%
    20:00 +13°C° 0 mm 2 mps 744 mmHg 63%
    21:00 +13°C° 0 mm 2 mps 744 mmHg 66%
    22:00 +12°C° 0 mm 1 mps 744 mmHg 68%
    23:00 +12°C° 0 mm 1 mps 744 mmHg 70%

    Tomorrow, 24 October, Thursday

    Time Temperature Precipitation Wind Pressure Humidity
    00:00 +11°C° 0 mm 1 mps 744 mmHg 72%
    01:00 +11°C° 0 mm 1 mps 744 mmHg 73%
    02:00 +11°C° 0 mm 1 mps 744 mmHg 75%
    03:00 +10°C° 0 mm 1 mps 744 mmHg 76%
    04:00 +10°C° 0 mm 1 mps 744 mmHg 77%
    05:00 +10°C° 0 mm 1 mps 744 mmHg 78%
    06:00 +10°C° 0 mm 1 mps 744 mmHg 80%
    07:00 +10°C° 0 mm 2 mps 744 mmHg 75%
    08:00 +12°C° 0 mm 2 mps 744 mmHg 70%
    09:00 +13°C° 0 mm 2 mps 744 mmHg 66%
    10:00 +15°C° 0 mm 2 mps 744 mmHg 59%
    11:00 +17°C° 0 mm 3 mps 743 mmHg 53%
    12:00 +19°C° 0 mm 3 mps 743 mmHg 47%
    13:00 +19°C° 0 mm 3 mps 743 mmHg 45%
    14:00 +20°C° 0 mm 3 mps 743 mmHg 43%
    15:00 +20°C° 0 mm 3 mps 743 mmHg 41%
    16:00 +18°C° 0 mm 3 mps 743 mmHg 46%
    17:00 +17°C° 0 mm 3 mps 743 mmHg 51%
    18:00 +14°C° 0 mm 3 mps 743 mmHg 56%
    19:00 +14°C° 0 mm 3 mps 743 mmHg 58%
    20:00 +14°C° 0 mm 2 mps 743 mmHg 60%
    21:00 +13°C° 0 mm 2 mps 743 mmHg 62%
    22:00 +13°C° 0 mm 2 mps 743 mmHg 63%
    23:00 +13°C° 0 mm 2 mps 742 mmHg 65%

    Day after tomorrow, 25 October, Friday

    Time Temperature Precipitation Wind Pressure Humidity
    00:00 +12°C° 0 mm 2 mps 742 mmHg 66%
    01:00 +12°C° 0 mm 2 mps 742 mmHg 70%
    02:00 +12°C° 0 mm 2 mps 742 mmHg 74%
    03:00 +10°C° 0 mm 2 mps 742 mmHg 78%
    04:00 +10°C° 0 mm 2 mps 742 mmHg 81%
    05:00 +10°C° 0 mm 2 mps 742 mmHg 83%
    06:00 +10°C° 0 mm 2 mps 741 mmHg 86%
    07:00 +12°C° 0 mm 2 mps 742 mmHg 82%
    08:00 +13°C° 0 mm 2 mps 742 mmHg 78%
    09:00 +14°C° 0 mm 2 mps 742 mmHg 75%
    10:00 +14°C° 0 mm 3 mps 742 mmHg 68%
    11:00 +17°C° 0 mm 3 mps 742 mmHg 61%
    12:00 +18°C° 0 mm 3 mps 742 mmHg 55%
    13:00 +18°C° 0 mm 4 mps 742 mmHg 54%
    14:00 +19°C° 0 mm 4 mps 741 mmHg 53%
    15:00 +19°C° 0 mm 4 mps 741 mmHg 53%
    16:00 +18°C° 0 mm 4 mps 741 mmHg 58%
    17:00 +16°C° 0 mm 3 mps 741 mmHg 64%
    18:00 +14°C° 0 mm 3 mps 742 mmHg 69%
    19:00 +14°C° 0 mm 2 mps 742 mmHg 72%
    20:00 +14°C° 0 mm 2 mps 742 mmHg 74%
    21:00 +13°C° 0 mm 2 mps 742 mmHg 76%
    22:00 +13°C° 0 mm 2 mps 742 mmHg 78%
    23:00 +12°C° 0 mm 2 mps 742 mmHg 80%

    26 October, Saturday

    Time Temperature Precipitation Wind Pressure Humidity
    00:00 +12°C° 0 mm 2 mps 742 mmHg 82%
    01:00 +10°C° 0 mm 2 mps 742 mmHg 84%
    02:00 +11°C° 0 mm 1 mps 741 mmHg 87%
    03:00 +11°C° 0 mm 1 mps 741 mmHg 89%
    04:00 +11°C° 0 mm 1 mps 742 mmHg 91%
    05:00 +10°C° 0 mm 1 mps 742 mmHg 93%
    06:00 +10°C° 0 mm 1 mps 742 mmHg 95%
    07:00 +11°C° 0 mm 1 mps 742 mmHg 93%
    08:00 +12°C° 0 mm 1 mps 742 mmHg 91%
    09:00 +13°C° 0 mm 1 mps 742 mmHg 88%
    10:00 +14°C° 0 mm 2 mps 742 mmHg 86%
    11:00 +14°C° 0 mm 2 mps 742 mmHg 83%
    12:00 +15°C° 0 mm 2 mps 742 mmHg 80%
    13:00 +16°C° 0 mm 2 mps 742 mmHg 77%
    14:00 +16°C° 0 mm 2 mps 742 mmHg 74%
    15:00 +17°C° 0 mm 3 mps 742 mmHg 71%
    16:00 +16°C° 0 mm 2 mps 742 mmHg 75%
    17:00 +16°C° 0 mm 2 mps 742 mmHg 79%
    18:00 +15°C° 0 mm 1 mps 743 mmHg 82%
    19:00 +15°C° 0 mm 1 mps 743 mmHg 83%
    20:00 +14°C° 0 mm 1 mps 743 mmHg 84%
    21:00 +14°C° 0 mm 1 mps 743 mmHg 86%
    22:00 +13°C° 0 mm 1 mps 743 mmHg 87%
    23:00 +13°C° 0 mm 1 mps 743 mmHg 88%

    27 October, Sunday

    Time Temperature Precipitation Wind Pressure Humidity
    00:00 +13°C° 0 mm 1 mps 742 mmHg 89%
    01:00 +11°C° 0 mm 0 mps 742 mmHg 91%
    02:00 +11°C° 0 mm 0 mps 742 mmHg 92%
    03:00 +11°C° 0 mm 0 mps 742 mmHg 93%
    04:00 +10°C° 0 mm 0 mps 742 mmHg 93%
    05:00 +10°C° 0 mm 0 mps 742 mmHg 93%
    06:00 +10°C° 0 mm 0 mps 743 mmHg 93%
    07:00 +12°C° 0 mm 1 mps 742 mmHg 90%
    08:00 +13°C° 0 mm 1 mps 742 mmHg 87%
    09:00 +14°C° 0 mm 1 mps 742 mmHg 84%
    10:00 +15°C° 0 mm 2 mps 742 mmHg 79%
    11:00 +16°C° 0 mm 2 mps 742 mmHg 74%
    12:00 +18°C° 0 mm 2 mps 742 mmHg 69%
    13:00 +18°C° 0 mm 2 mps 742 mmHg 68%
    14:00 +18°C° 0 mm 3 mps 742 mmHg 67%
    15:00 +18°C° 0 mm 3 mps 741 mmHg 65%
    16:00 +18°C° 0 mm 3 mps 741 mmHg 69%
    17:00 +17°C° 0 mm 3 mps 741 mmHg 74%
    18:00 +16°C° 0 mm 3 mps 741 mmHg 78%
    19:00 +15°C° 0 mm 2 mps 741 mmHg 77%
    20:00 +14°C° 0 mm 2 mps 741 mmHg 75%
    21:00 +14°C° 0 mm 2 mps 741 mmHg 74%
    22:00 +13°C° 0 mm 2 mps 741 mmHg 70%
    23:00 +13°C° 0 mm 2 mps 740 mmHg 66%

    28 October, Monday

    Time Temperature Precipitation Wind Pressure Humidity
    00:00 +12°C° 0 mm 2 mps 740 mmHg 62%
    01:00 +12°C° 0 mm 2 mps 740 mmHg 63%
    02:00 +11°C° 0 mm 1 mps 740 mmHg 63%
    03:00 +11°C° 0 mm 1 mps 739 mmHg 64%
    04:00 +11°C° 0 mm 1 mps 739 mmHg 65%
    05:00 +10°C° 0 mm 1 mps 739 mmHg 67%
    06:00 +10°C° 0 mm 1 mps 739 mmHg 69%
    07:00 +12°C° 0 mm 1 mps 739 mmHg 64%
    08:00 +13°C° 0 mm 1 mps 739 mmHg 59%
    09:00 +14°C° 0 mm 1 mps 739 mmHg 54%
    10:00 +16°C° 0 mm 1 mps 739 mmHg 49%
    11:00 +17°C° 0 mm 2 mps 739 mmHg 43%
    12:00 +19°C° 0 mm 2 mps 738 mmHg 38%
    13:00 +19°C° 0 mm 2 mps 738 mmHg 37%
    14:00 +19°C° 0 mm 2 mps 738 mmHg 37%
    15:00 +20°C° 0 mm 2 mps 738 mmHg 37%
    16:00 +18°C° 0 mm 2 mps 738 mmHg 42%
    17:00 +17°C° 0 mm 2 mps 738 mmHg 47%
    18:00 +15°C° 0 mm 2 mps 738 mmHg 52%
    19:00 +15°C° 0 mm 1 mps 738 mmHg 54%
    20:00 +14°C° 0 mm 1 mps 738 mmHg 56%
    21:00 +13°C° 0 mm 1 mps 738 mmHg 58%
    22:00 +13°C° 0 mm 1 mps 738 mmHg 60%
    23:00 +13°C° 0 mm 1 mps 738 mmHg 61%

    29 October, Tuesday

    Time Temperature Precipitation Wind Pressure Humidity
    00:00 +13°C° 0 mm 1 mps 738 mmHg 62%
    01:00 +13°C° 0 mm 1 mps 738 mmHg 63%
    02:00 +13°C° 0 mm 1 mps 738 mmHg 64%
    03:00 +12°C° 0 mm 2 mps 738 mmHg 65%
    04:00 +12°C° 0 mm 2 mps 738 mmHg 66%
    05:00 +12°C° 0 mm 2 mps 738 mmHg 66%
    06:00 +12°C° 0 mm 2 mps 738 mmHg 67%
    07:00 +13°C° 0 mm 2 mps 738 mmHg 61%
    08:00 +15°C° 0 mm 2 mps 739 mmHg 56%
    09:00 +16°C° 0 mm 2 mps 739 mmHg 51%
    10:00 +18°C° 0 mm 2 mps 739 mmHg 48%
    11:00 +19°C° 0 mm 2 mps 739 mmHg 45%
    12:00 +21°C° 0 mm 2 mps 739 mmHg 43%
    13:00 +21°C° 0 mm 2 mps 738 mmHg 42%
    14:00 +21°C° 0 mm 2 mps 738 mmHg 40%
    15:00 +21°C° 0 mm 2 mps 738 mmHg 39%
    16:00 +21°C° 0 mm 1 mps 738 mmHg 44%
    17:00 +19°C° 0 mm 1 mps 738 mmHg 48%
    18:00 +18°C° 0 mm 1 mps 738 mmHg 52%
    19:00 +16°C° 0 mm 1 mps 739 mmHg 55%
    20:00 +14°C° 0 mm 0 mps 739 mmHg 58%
    21:00 +14°C° 0 mm 0 mps 739 mmHg 60%
    22:00 +13°C° 0 mm 0 mps 739 mmHg 61%
    23:00 +13°C° 0 mm 0 mps 739 mmHg 63%
    Show more